Powrót do katalogu

STARLINK-3551

AktywnyŁącznośćVLEO
NORAD 51887·PAYLOAD·🇺🇸 United States

Wystrzelony Mar 3, 2022 z Cape Canaveral Space Force Station

Loading…

Następne Przeloty (najbliższe 24 godziny)

TLE

ŚwieżeSource: CelesTrak SupGP

Epoka: Sep 15, 2026, 02:16 UTC

1 51887C 22022AM  26258.09493056 -.00021124  00000+0 -62424-3 0  2586
2 51887  53.1582 212.6431 0001323  87.5468 104.4094 15.34394273    15

Śledź STARLINK-3551 w czasie rzeczywistym z AllMySat

Download on the App Store